#timestamp,LO_Frequency,Hit,StdDev 
1516712415.2,286046984.1,N
1516712435.0,286046983.9,N
1516712435.9,286046983.9,N
1516712455.8,286046984.2,N
1516712475.6,286046983.9,N
1516712495.4,286046983.9,N
1516712515.3,286046984.3,N
1516712535.1,286046984.4,N
1516712555.8,286046984.4,N
1516712575.7,286046984.5,Y
1516712595.5,286046998.4,P
1516712615.3,286046998.7,N
1516712635.2,286046998.7,N
1516712655.9,286046998.8,N
1516712675.7,286046998.9,N
1516712695.6,286046998.9,N
1516712715.4,286046999.0,N
1516712735.2,286046999.0,N
1516712755.1,286046999.0,N
1516712756.0,286046999.0,N
1516712775.8,286046999.3,N
1516712795.6,286046999.4,N
1516712815.4,286046999.1,N
1516712835.3,286046999.1,N
1516712855.1,286046999.5,N
1516712875.8,286046999.2,N
1516712895.7,286046999.6,N
1516712915.5,286046999.6,N
1516712935.3,286046999.2,N
1516712955.2,286046999.2,N
1516712975.9,286046999.6,N
1516712995.7,286046996.5,N
1516713015.6,286046999.4,N
1516713035.4,286046999.4,N
1516713055.2,286046999.1,N
1516713075.1,286046999.2,N
1516713076.0,286046999.2,N
1516713095.8,286046999.5,N
1516713115.6,286046999.2,N
1516713135.5,286046999.5,N
1516713155.3,286046999.6,N
1516713175.1,286046996.6,Y
1516713195.9,286046998.9,P
1516713215.7,286046999.0,P
1516713235.5,286046996.6,P
1516713255.4,286046996.6,Y
1516713275.2,286046998.6,P
1516713295.0,286046998.6,P
1516713295.9,286046998.6,P
1516713315.8,286046998.3,Y
1516713335.6,286046999.9,P
1516713355.4,286047000.0,N
1516713375.3,286047000.4,N
1516713395.1,286047000.4,N
1516713396.0,286047000.4,N
1516713415.8,286047000.0,N
1516713435.6,286047000.3,N
1516713455.5,286047000.4,N
1516713475.3,286047000.4,N
1516713495.1,286047000.5,N
1516713515.9,286047000.9,N
1516713535.7,286047001.0,N
1516713555.5,286047001.0,N
1516713575.4,286047000.7,N
1516713595.2,286047000.8,N
1516713615.0,286047000.8,N
1516713615.9,286047000.8,N
1516713635.8,286047001.1,N
1516713655.6,286047001.2,N
1516713675.4,286046998.1,Y
1516713695.3,286046998.4,P
1516713715.1,286046998.3,N
1516713716.0,286046998.3,N
1516713735.8,286046998.7,N
1516713755.7,286046998.8,N
1516713775.5,286046998.8,N
1516713795.3,286046998.9,N
1516713815.2,286046998.9,N
1516713835.9,286046999.0,N
1516713855.7,286046999.3,N
1516713875.5,286046999.3,N
1516713895.4,286046999.3,N
1516713915.2,286046999.3,N
1516713935.0,286046999.4,N
1516713935.9,286046999.4,N
1516713955.1,286046999.1,N
1516713975.9,286046999.1,N
1516713995.7,286046999.1,N
1516714015.5,286046999.1,N
1516714035.3,286046999.2,N
1516714055.2,286046999.2,N
1516714075.0,286047008.1,Y
1516714075.9,286047008.1,P
1516714095.7,286047010.6,N
1516714115.6,286047010.5,N
1516714135.4,286047010.6,N
1516714155.2,286047010.3,N
1516714175.1,286047010.4,N
1516714176.0,286047010.4,N
1516714195.1,286047009.9,N
1516714215.9,286047010.1,N
1516714235.7,286047010.7,Y
1516714255.5,286047000.4,P
1516714275.4,286047000.5,N
1516714295.2,286047000.5,N
1516714315.0,286047000.5,N
1516714315.9,286047000.5,N
1516714335.8,286047000.1,N
1516714355.6,286046999.8,N
1516714375.4,286047002.3,N
1516714395.2,286047000.1,N
1516714415.1,286046999.8,N
1516714416.0,286046999.8,N
1516714435.8,286047002.6,N
1516714455.6,286047001.6,N
1516714475.5,286047001.6,N
1516714495.3,286047002.5,N
1516714515.1,286047002.2,N
1516714535.9,286047002.2,N
1516714555.7,286047001.4,N
1516714575.5,286047002.1,N
1516714595.4,286047002.1,N
1516714615.2,286047002.1,N
1516714635.0,286047002.7,N
1516714635.9,286047002.7,N
1516714655.8,286047002.4,N
1516714675.6,286047002.3,N
1516714695.4,286047002.3,N
1516714715.2,286047002.3,N
1516714735.1,286047000.1,N
1516714736.0,286047000.1,N
1516714755.8,286047000.5,N
1516714775.6,286047001.2,N
1516714795.5,286047005.4,Y
1516714815.3,286047002.7,P
1516714835.1,286047000.2,N
1516714855.9,286047000.6,N
1516714875.7,286047000.6,N
1516714895.5,286047001.2,N
1516714915.4,286047000.5,N
1516714935.2,286047000.6,N
1516714955.0,286047000.5,N
1516714955.9,286047000.5,N
1516714975.8,286047000.2,N
1516714995.6,286046999.9,N
1516715015.4,286047000.6,N
1516715035.3,286047000.6,N
1516715055.1,286047001.2,N
1516715056.0,286047001.2,N
1516715075.8,286047000.2,N
1516715095.7,286047000.6,N
1516715115.5,286047001.2,N
1516715135.3,286047000.6,N
1516715155.1,286047001.1,N
1516715175.9,286047000.2,N
1516715195.7,286046999.9,N
1516715215.5,286046999.1,N
1516715235.4,286047002.0,N
1516715255.2,286047002.7,Y
1516715275.0,286046997.7,P
1516715275.9,286046997.7,N
1516715295.8,286046998.5,N
1516715315.6,286047000.7,N
1516715335.4,286046998.5,N
1516715355.3,286046998.6,N
1516715375.1,286047000.4,N
1516715376.0,286047000.4,N
1516715395.8,286046998.6,N
1516715415.7,286046999.5,N
1516715435.5,286046998.5,N
1516715455.3,286046999.0,N
1516715475.2,286046998.5,N
1516715495.9,286046998.9,N
1516715515.7,286046992.6,Y
1516715535.6,286047007.9,P
1516715555.4,286047000.5,N
1516715575.2,286047000.5,N
1516715595.0,286047000.5,N
1516715596.0,286047000.5,N
1516715615.8,286047001.1,N
1516715635.6,286047001.2,N
1516715655.4,286047000.6,N
1516715675.3,286047000.6,N
1516715695.1,286047000.9,N
1516715715.8,286047000.6,N
1516715735.7,286047000.2,N
1516715755.5,286046999.9,N
1516715775.3,286047000.6,N
1516715795.2,286047000.6,N
1516715815.9,286047000.6,N
1516715835.7,286047000.6,N
1516715855.6,286047000.6,N
1516715875.4,286047000.9,N
1516715895.2,286047000.5,N
1516715915.0,286047000.6,N
1516715915.9,286047000.6,N
1516715935.8,286047000.2,N
1516715955.6,286047000.5,N
1516715975.4,286047000.6,N
1516715995.3,286047000.6,N
